Volver al catálogo

COSMOS 2151

ActivoMilitarPO
NORAD 21422·PAYLOAD·🇷🇺 Russia

Lanzado Jun 13, 1991 desde Plesetsk Cosmodrome

Loading…

Próximos Pases (próximas 24 horas)

TLE

ActualizadoSource: Space-Track

Época: Sep 14, 2026, 22:47 UTC

1 21422U 91042A   26257.94992376  .00001335  00000-0  10327-3 0  9996
2 21422  82.4926 261.0418 0013455 133.9279 226.3058 15.00638563891571

Sigue COSMOS 2151 en tiempo real con AllMySat

Download on the App Store